Year,Month,Day,Hour,Minute,Value (Times are PST for temperature in C)
2018,08,07,00,00,17.50
2018,08,07,00,01,17.50
2018,08,07,00,02,17.50
2018,08,07,00,03,17.40
2018,08,07,00,04,17.40
2018,08,07,00,05,17.40
2018,08,07,00,06,17.40
2018,08,07,00,07,17.40
2018,08,07,00,08,17.30
2018,08,07,00,09,17.30
2018,08,07,00,10,17.30
2018,08,07,00,11,17.30
2018,08,07,00,12,17.30
2018,08,07,00,13,17.30
2018,08,07,00,14,17.30
2018,08,07,00,15,17.30
2018,08,07,00,16,17.30
2018,08,07,00,17,17.30
2018,08,07,00,18,17.30
2018,08,07,00,19,17.30
2018,08,07,00,20,17.20
2018,08,07,00,21,17.20
2018,08,07,00,22,17.20
2018,08,07,00,23,17.20
2018,08,07,00,24,17.20
2018,08,07,00,25,17.10
2018,08,07,00,26,17.10
2018,08,07,00,27,17.10
2018,08,07,00,28,17.10
2018,08,07,00,29,17.10
2018,08,07,00,30,17.10
2018,08,07,00,31,17.10
2018,08,07,00,32,17.10
2018,08,07,00,33,17.10
2018,08,07,00,34,17.10
2018,08,07,00,35,17.00
2018,08,07,00,36,17.00
2018,08,07,00,37,17.00
2018,08,07,00,38,17.00
2018,08,07,00,39,17.00
2018,08,07,00,40,17.00
2018,08,07,00,41,17.00
2018,08,07,00,42,16.90
2018,08,07,00,43,16.90
2018,08,07,00,44,16.90
2018,08,07,00,45,16.90
2018,08,07,00,46,16.90
2018,08,07,00,47,16.90
2018,08,07,00,48,16.90
2018,08,07,00,49,16.90
2018,08,07,00,50,16.90
2018,08,07,00,51,16.90
2018,08,07,00,52,16.80
2018,08,07,00,53,16.80
2018,08,07,00,54,16.80
2018,08,07,00,55,16.80
2018,08,07,00,56,16.80
2018,08,07,00,57,16.80
2018,08,07,00,58,16.70
2018,08,07,00,59,16.70
2018,08,07,01,00,16.70
2018,08,07,01,01,16.70
2018,08,07,01,02,16.70
2018,08,07,01,03,16.70
2018,08,07,01,04,16.70
2018,08,07,01,05,16.70
2018,08,07,01,06,16.70
2018,08,07,01,07,16.70
2018,08,07,01,08,16.70
2018,08,07,01,09,16.70
2018,08,07,01,10,16.70
2018,08,07,01,11,16.70
2018,08,07,01,12,16.70
2018,08,07,01,13,16.70
2018,08,07,01,14,16.70
2018,08,07,01,15,16.70
2018,08,07,01,16,16.70
2018,08,07,01,17,16.70
2018,08,07,01,18,16.70
2018,08,07,01,19,16.70
2018,08,07,01,20,16.70
2018,08,07,01,21,16.60
2018,08,07,01,22,16.60
2018,08,07,01,23,16.60
2018,08,07,01,24,16.60
2018,08,07,01,25,16.60
2018,08,07,01,26,16.60
2018,08,07,01,27,16.50
2018,08,07,01,28,16.40
2018,08,07,01,29,16.40
2018,08,07,01,30,16.40
2018,08,07,01,31,16.40
2018,08,07,01,32,16.40
2018,08,07,01,33,16.40
2018,08,07,01,34,16.40
2018,08,07,01,35,16.40
2018,08,07,01,36,16.40
2018,08,07,01,37,16.40
2018,08,07,01,38,16.40
2018,08,07,01,39,16.40
2018,08,07,01,40,16.40
2018,08,07,01,41,16.60
2018,08,07,01,42,16.60
2018,08,07,01,43,16.70
2018,08,07,01,44,16.70
2018,08,07,01,45,16.70
2018,08,07,01,46,16.80
2018,08,07,01,47,16.80
2018,08,07,01,48,16.80
2018,08,07,01,49,16.80
2018,08,07,01,50,16.80
2018,08,07,01,51,16.80
2018,08,07,01,52,16.80
2018,08,07,01,53,16.70
2018,08,07,01,54,16.70
2018,08,07,01,55,16.70
2018,08,07,01,56,16.70
2018,08,07,01,57,16.70
2018,08,07,01,58,16.70
2018,08,07,01,59,16.60
2018,08,07,02,00,16.60
2018,08,07,02,01,16.60
2018,08,07,02,02,16.60
2018,08,07,02,03,16.60
2018,08,07,02,04,16.50
2018,08,07,02,05,16.40
2018,08,07,02,06,16.40
2018,08,07,02,07,16.40
2018,08,07,02,08,16.40
2018,08,07,02,09,16.40
2018,08,07,02,10,16.30
2018,08,07,02,11,16.30
2018,08,07,02,12,16.30
2018,08,07,02,13,16.20
2018,08,07,02,14,16.20
2018,08,07,02,15,16.20
2018,08,07,02,16,16.10
2018,08,07,02,17,16.10
2018,08,07,02,18,16.10
2018,08,07,02,19,16.10
2018,08,07,02,20,16.10
2018,08,07,02,21,16.10
2018,08,07,02,22,16.10
2018,08,07,02,23,16.10
2018,08,07,02,24,16.10
2018,08,07,02,25,16.10
2018,08,07,02,26,16.10
2018,08,07,02,27,16.10
2018,08,07,02,28,16.10
2018,08,07,02,29,16.10
2018,08,07,02,30,16.10
2018,08,07,02,31,16.10
2018,08,07,02,32,16.10
2018,08,07,02,33,16.10
2018,08,07,02,34,16.10
2018,08,07,02,35,16.10
2018,08,07,02,36,16.10
2018,08,07,02,37,16.10
2018,08,07,02,38,16.10
2018,08,07,02,39,16.10
2018,08,07,02,40,16.10
2018,08,07,02,41,16.10
2018,08,07,02,42,16.00
2018,08,07,02,43,15.90
2018,08,07,02,44,15.90
2018,08,07,02,45,15.90
2018,08,07,02,46,15.90
2018,08,07,02,47,15.90
2018,08,07,02,48,15.90
2018,08,07,02,49,15.90
2018,08,07,02,50,15.80
2018,08,07,02,51,15.80
2018,08,07,02,52,15.80
2018,08,07,02,53,15.80
2018,08,07,02,54,15.80
2018,08,07,02,55,15.80
2018,08,07,02,56,15.80
2018,08,07,02,57,15.80
2018,08,07,02,58,15.80
2018,08,07,02,59,15.80
2018,08,07,03,00,15.80
2018,08,07,03,01,15.80
2018,08,07,03,02,15.80
2018,08,07,03,03,15.80
2018,08,07,03,04,15.80
2018,08,07,03,05,15.80
2018,08,07,03,06,15.80
2018,08,07,03,07,15.80
2018,08,07,03,08,15.80
2018,08,07,03,09,15.80
2018,08,07,03,10,15.70
2018,08,07,03,11,15.70
2018,08,07,03,12,15.70
2018,08,07,03,13,15.70
2018,08,07,03,14,15.70
2018,08,07,03,15,15.60
2018,08,07,03,16,15.60
2018,08,07,03,17,15.60
2018,08,07,03,18,15.60
2018,08,07,03,19,15.60
2018,08,07,03,20,15.50
2018,08,07,03,21,15.50
2018,08,07,03,22,15.50
2018,08,07,03,23,15.40
2018,08,07,03,24,15.40
2018,08,07,03,25,15.30
2018,08,07,03,26,15.30
2018,08,07,03,27,15.30
2018,08,07,03,28,15.20
2018,08,07,03,29,15.20
2018,08,07,03,30,15.10
2018,08,07,03,31,15.10
2018,08,07,03,32,15.10
2018,08,07,03,33,15.00
2018,08,07,03,34,15.00
2018,08,07,03,35,14.90
2018,08,07,03,36,14.90
2018,08,07,03,37,14.90
2018,08,07,03,38,14.80
2018,08,07,03,39,14.80
2018,08,07,03,40,14.80
2018,08,07,03,41,14.80
2018,08,07,03,42,14.80
2018,08,07,03,43,14.80
2018,08,07,03,44,14.80
2018,08,07,03,45,14.70
2018,08,07,03,46,14.70
2018,08,07,03,47,14.70
2018,08,07,03,48,14.70
2018,08,07,03,49,14.70
2018,08,07,03,50,14.70
2018,08,07,03,51,14.70
2018,08,07,03,52,14.70
2018,08,07,03,53,14.70
2018,08,07,03,54,14.70
2018,08,07,03,55,14.70
2018,08,07,03,56,14.60
2018,08,07,03,57,14.60
2018,08,07,03,58,14.70
2018,08,07,03,59,14.70
2018,08,07,04,00,14.70
2018,08,07,04,01,14.70
2018,08,07,04,02,14.70
2018,08,07,04,03,14.70
2018,08,07,04,04,14.70
2018,08,07,04,05,14.70
2018,08,07,04,06,14.70
2018,08,07,04,07,14.70
2018,08,07,04,08,14.70
2018,08,07,04,09,14.70
2018,08,07,04,10,14.70
2018,08,07,04,11,14.70
2018,08,07,04,12,14.70
2018,08,07,04,13,14.70
2018,08,07,04,14,14.70
2018,08,07,04,15,14.70
2018,08,07,04,16,14.70
2018,08,07,04,17,14.70
2018,08,07,04,18,14.70
2018,08,07,04,19,14.70
2018,08,07,04,20,14.60
2018,08,07,04,21,14.60
2018,08,07,04,22,14.60
2018,08,07,04,23,14.60
2018,08,07,04,24,14.60
2018,08,07,04,25,14.60
2018,08,07,04,26,14.60
2018,08,07,04,27,14.60
2018,08,07,04,28,14.60
2018,08,07,04,29,14.60
2018,08,07,04,30,14.60
2018,08,07,04,31,14.70
2018,08,07,04,32,14.70
2018,08,07,04,33,14.70
2018,08,07,04,34,14.70
2018,08,07,04,35,14.70
2018,08,07,04,36,14.70
2018,08,07,04,37,14.70
2018,08,07,04,38,14.60
2018,08,07,04,39,14.60
2018,08,07,04,40,14.60
2018,08,07,04,41,14.60
2018,08,07,04,42,14.60
2018,08,07,04,43,14.60
2018,08,07,04,44,14.60
2018,08,07,04,45,14.60
2018,08,07,04,46,14.70
2018,08,07,04,47,14.70
2018,08,07,04,48,14.70
2018,08,07,04,49,14.70
2018,08,07,04,50,14.70
2018,08,07,04,51,14.70
2018,08,07,04,52,14.70
2018,08,07,04,53,14.70
2018,08,07,04,54,14.70
2018,08,07,04,55,14.60
2018,08,07,04,56,14.60
2018,08,07,04,57,14.60
2018,08,07,04,58,14.60
2018,08,07,04,59,14.60
2018,08,07,05,00,14.60
2018,08,07,05,01,14.60
2018,08,07,05,02,14.60
2018,08,07,05,03,14.60
2018,08,07,05,04,14.60
2018,08,07,05,05,14.50
2018,08,07,05,06,14.50
2018,08,07,05,07,14.50
2018,08,07,05,08,14.50
2018,08,07,05,09,14.50
2018,08,07,05,10,14.50
2018,08,07,05,11,14.50
2018,08,07,05,12,14.50
2018,08,07,05,13,14.50
2018,08,07,05,14,14.50
2018,08,07,05,15,14.50
2018,08,07,05,16,14.50
2018,08,07,05,17,14.50
2018,08,07,05,18,14.50
2018,08,07,05,19,14.50
2018,08,07,05,20,14.50
2018,08,07,05,21,14.50
2018,08,07,05,22,14.50
2018,08,07,05,23,14.40
2018,08,07,05,24,14.40
2018,08,07,05,25,14.40
2018,08,07,05,26,14.40
2018,08,07,05,27,14.40
2018,08,07,05,28,14.40
2018,08,07,05,29,14.40
2018,08,07,05,30,14.40
2018,08,07,05,31,14.30
2018,08,07,05,32,14.30
2018,08,07,05,33,14.30
2018,08,07,05,34,14.30
2018,08,07,05,35,14.30
2018,08,07,05,36,14.30
2018,08,07,05,37,14.30
2018,08,07,05,38,14.20
2018,08,07,05,39,14.20
2018,08,07,05,40,14.20
2018,08,07,05,41,14.20
2018,08,07,05,42,14.20
2018,08,07,05,43,14.20
2018,08,07,05,44,14.20
2018,08,07,05,45,14.20
2018,08,07,05,46,14.20
2018,08,07,05,47,14.20
2018,08,07,05,48,14.20
2018,08,07,05,49,14.20
2018,08,07,05,50,14.20
2018,08,07,05,51,14.20
2018,08,07,05,52,14.20
2018,08,07,05,53,14.20
2018,08,07,05,54,14.20
2018,08,07,05,55,14.20
2018,08,07,05,56,14.20
2018,08,07,05,57,14.20
2018,08,07,05,58,14.20
2018,08,07,05,59,14.20
2018,08,07,06,00,14.20
2018,08,07,06,01,14.20
2018,08,07,06,02,14.20
2018,08,07,06,03,14.20
2018,08,07,06,04,14.20
2018,08,07,06,05,14.20
2018,08,07,06,06,14.20
2018,08,07,06,07,14.20
2018,08,07,06,08,14.20
2018,08,07,06,09,14.20
2018,08,07,06,10,14.20
2018,08,07,06,11,14.20
2018,08,07,06,12,14.20
2018,08,07,06,13,14.20
2018,08,07,06,14,14.20
2018,08,07,06,15,14.20
2018,08,07,06,16,14.20
2018,08,07,06,17,14.20
2018,08,07,06,18,14.20
2018,08,07,06,19,14.20
2018,08,07,06,20,14.20
2018,08,07,06,21,14.30
2018,08,07,06,22,14.30
2018,08,07,06,23,14.40
2018,08,07,06,24,14.40
2018,08,07,06,25,14.40
2018,08,07,06,26,14.50
2018,08,07,06,27,14.50
2018,08,07,06,28,14.50
2018,08,07,06,29,14.60
2018,08,07,06,30,14.60
2018,08,07,06,31,14.60
2018,08,07,06,32,14.70
2018,08,07,06,33,14.70
2018,08,07,06,34,14.80
2018,08,07,06,35,14.80
2018,08,07,06,36,14.80
2018,08,07,06,37,14.90
2018,08,07,06,38,15.00
2018,08,07,06,39,15.00
2018,08,07,06,40,15.10
2018,08,07,06,41,15.10
2018,08,07,06,42,15.20
2018,08,07,06,43,15.30
2018,08,07,06,44,15.30
2018,08,07,06,45,15.30
2018,08,07,06,46,15.30
2018,08,07,06,47,15.30
2018,08,07,06,48,15.40
2018,08,07,06,49,15.40
2018,08,07,06,50,15.50
2018,08,07,06,51,15.50
2018,08,07,06,52,15.50
2018,08,07,06,53,15.60
2018,08,07,06,54,15.60
2018,08,07,06,55,15.70
2018,08,07,06,56,15.80
2018,08,07,06,57,15.80
2018,08,07,06,58,15.80
2018,08,07,06,59,15.80
2018,08,07,07,00,15.80
2018,08,07,07,01,15.90
2018,08,07,07,02,15.90
2018,08,07,07,03,15.90
2018,08,07,07,04,16.00
2018,08,07,07,05,16.10
2018,08,07,07,06,16.10
2018,08,07,07,07,16.10
2018,08,07,07,08,16.20
2018,08,07,07,09,16.20
2018,08,07,07,10,16.30
2018,08,07,07,11,16.40
2018,08,07,07,12,16.50
2018,08,07,07,13,16.60
2018,08,07,07,14,16.70
2018,08,07,07,15,16.70
2018,08,07,07,16,16.80
2018,08,07,07,17,16.80
2018,08,07,07,18,16.90
2018,08,07,07,19,16.90
2018,08,07,07,20,16.90
2018,08,07,07,21,17.00
2018,08,07,07,22,17.00
2018,08,07,07,23,17.10
2018,08,07,07,24,17.10
2018,08,07,07,25,17.20
2018,08,07,07,26,17.20
2018,08,07,07,27,17.30
2018,08,07,07,28,17.40
2018,08,07,07,29,17.40
2018,08,07,07,30,17.40
2018,08,07,07,31,17.50
2018,08,07,07,32,17.50
2018,08,07,07,33,17.60
2018,08,07,07,34,17.60
2018,08,07,07,35,17.70
2018,08,07,07,36,17.70
2018,08,07,07,37,17.80
2018,08,07,07,38,17.80
2018,08,07,07,39,17.90
2018,08,07,07,40,17.90
2018,08,07,07,41,17.90
2018,08,07,07,42,18.00
2018,08,07,07,43,18.10
2018,08,07,07,44,18.10
2018,08,07,07,45,18.20
2018,08,07,07,46,18.20
2018,08,07,07,47,18.30
2018,08,07,07,48,18.40
2018,08,07,07,49,18.50
2018,08,07,07,50,18.60
2018,08,07,07,51,18.70
2018,08,07,07,52,18.70
2018,08,07,07,53,18.80
2018,08,07,07,54,18.90
2018,08,07,07,55,18.90
2018,08,07,07,56,18.90
2018,08,07,07,57,19.00
2018,08,07,07,58,19.10
2018,08,07,07,59,19.10
2018,08,07,08,00,19.20
2018,08,07,08,01,19.30
2018,08,07,08,02,19.30
2018,08,07,08,03,19.40
2018,08,07,08,04,19.50
2018,08,07,08,05,19.60
2018,08,07,08,06,19.60
2018,08,07,08,07,19.70
2018,08,07,08,08,19.70
2018,08,07,08,09,19.80
2018,08,07,08,10,19.90
2018,08,07,08,11,20.00
2018,08,07,08,12,20.10
2018,08,07,08,13,20.20
2018,08,07,08,14,20.20
2018,08,07,08,15,20.20
2018,08,07,08,16,20.20
2018,08,07,08,17,20.20
2018,08,07,08,18,20.20
2018,08,07,08,19,20.20
2018,08,07,08,20,20.20
2018,08,07,08,21,20.30
2018,08,07,08,22,20.30
2018,08,07,08,23,20.40
2018,08,07,08,24,20.50
2018,08,07,08,25,20.70
2018,08,07,08,26,20.80
2018,08,07,08,27,20.80
2018,08,07,08,28,20.90
2018,08,07,08,29,20.90
2018,08,07,08,30,20.90
2018,08,07,08,31,20.80
2018,08,07,08,32,20.80
2018,08,07,08,33,20.70
2018,08,07,08,34,20.70
2018,08,07,08,35,20.70
2018,08,07,08,36,20.70
2018,08,07,08,37,20.70
2018,08,07,08,38,20.70
2018,08,07,08,39,20.80
2018,08,07,08,40,20.90
2018,08,07,08,41,21.00
2018,08,07,08,42,21.10
2018,08,07,08,43,21.20
2018,08,07,08,44,21.30
2018,08,07,08,45,21.40
2018,08,07,08,46,21.50
2018,08,07,08,47,21.60
2018,08,07,08,48,21.60
2018,08,07,08,49,21.60
2018,08,07,08,50,21.60
2018,08,07,08,51,21.70
2018,08,07,08,52,21.80
2018,08,07,08,53,21.90
2018,08,07,08,54,21.90
2018,08,07,08,55,21.90
2018,08,07,08,56,22.00
2018,08,07,08,57,22.10
2018,08,07,08,58,22.20
2018,08,07,08,59,22.30
2018,08,07,09,00,22.40
2018,08,07,09,01,22.50
2018,08,07,09,02,22.60
2018,08,07,09,03,22.70
2018,08,07,09,04,22.80
2018,08,07,09,05,22.80
2018,08,07,09,06,22.80
2018,08,07,09,07,22.80
2018,08,07,09,08,22.80
2018,08,07,09,09,22.90
2018,08,07,09,10,22.90
2018,08,07,09,11,23.00
2018,08,07,09,12,23.10
2018,08,07,09,13,23.20
2018,08,07,09,14,23.30
2018,08,07,09,15,23.30
2018,08,07,09,16,23.40
2018,08,07,09,17,23.40
2018,08,07,09,18,23.40
2018,08,07,09,19,23.50
2018,08,07,09,20,23.60
2018,08,07,09,21,23.60
2018,08,07,09,22,23.70
2018,08,07,09,23,23.80
2018,08,07,09,24,23.90
2018,08,07,09,25,24.00
2018,08,07,09,26,24.10
2018,08,07,09,27,24.20
2018,08,07,09,28,24.30
2018,08,07,09,29,24.40
2018,08,07,09,30,24.40
2018,08,07,09,31,24.40
2018,08,07,09,32,24.30
2018,08,07,09,33,24.20
2018,08,07,09,34,24.20
2018,08,07,09,35,24.10
2018,08,07,09,36,23.90
2018,08,07,09,37,23.70
2018,08,07,09,38,23.50
2018,08,07,09,39,23.30
2018,08,07,09,40,23.30
2018,08,07,09,41,23.20
2018,08,07,09,42,23.10
2018,08,07,09,43,23.00
2018,08,07,09,44,22.90
2018,08,07,09,45,23.00
2018,08,07,09,46,23.10
2018,08,07,09,47,23.00
2018,08,07,09,48,22.90
2018,08,07,09,49,22.90
2018,08,07,09,50,22.90
2018,08,07,09,51,22.80
2018,08,07,09,52,22.80
2018,08,07,09,53,22.70
2018,08,07,09,54,22.60
2018,08,07,09,55,22.40
2018,08,07,09,56,22.40
2018,08,07,09,57,22.30
2018,08,07,09,58,22.30
2018,08,07,09,59,22.30
2018,08,07,10,00,22.40
2018,08,07,10,01,22.50
2018,08,07,10,02,22.60
2018,08,07,10,03,22.80
2018,08,07,10,04,22.90
2018,08,07,10,05,22.90
2018,08,07,10,06,23.00
2018,08,07,10,07,23.10
2018,08,07,10,08,23.00
2018,08,07,10,09,22.90
2018,08,07,10,10,22.90
2018,08,07,10,11,22.90
2018,08,07,10,12,22.90
2018,08,07,10,13,22.90
2018,08,07,10,14,22.90
2018,08,07,10,15,22.90
2018,08,07,10,16,22.90
2018,08,07,10,17,23.00
2018,08,07,10,18,23.10
2018,08,07,10,19,23.20
2018,08,07,10,20,23.30
2018,08,07,10,21,23.20
2018,08,07,10,22,23.20
2018,08,07,10,23,23.20
2018,08,07,10,24,23.30
2018,08,07,10,25,23.40
2018,08,07,10,26,23.50
2018,08,07,10,27,23.60
2018,08,07,10,28,23.50
2018,08,07,10,29,23.40
2018,08,07,10,30,23.60
2018,08,07,10,31,23.70
2018,08,07,10,32,23.70
2018,08,07,10,33,23.70
2018,08,07,10,34,23.70
2018,08,07,10,35,23.90
2018,08,07,10,36,24.00
2018,08,07,10,37,24.10
2018,08,07,10,38,24.20
2018,08,07,10,39,24.20
2018,08,07,10,40,24.30
2018,08,07,10,41,24.40
2018,08,07,10,42,24.40
2018,08,07,10,43,24.50
2018,08,07,10,44,24.50
2018,08,07,10,45,24.50
2018,08,07,10,46,24.50
2018,08,07,10,47,24.60
2018,08,07,10,48,24.60
2018,08,07,10,49,24.70
2018,08,07,10,50,24.80
2018,08,07,10,51,24.80
2018,08,07,10,52,24.90
2018,08,07,10,53,25.00
2018,08,07,10,54,25.00
2018,08,07,10,55,24.90
2018,08,07,10,56,24.90
2018,08,07,10,57,25.00
2018,08,07,10,58,25.00
2018,08,07,10,59,25.10
2018,08,07,11,00,25.10
2018,08,07,11,01,25.20
2018,08,07,11,02,25.30
2018,08,07,11,03,25.30
2018,08,07,11,04,25.30
2018,08,07,11,05,25.40
2018,08,07,11,06,25.40
2018,08,07,11,07,25.50
2018,08,07,11,08,25.60
2018,08,07,11,09,25.60
2018,08,07,11,10,25.60
2018,08,07,11,11,25.50
2018,08,07,11,12,25.30
2018,08,07,11,13,25.10
2018,08,07,11,14,25.10
2018,08,07,11,15,25.00
2018,08,07,11,16,25.00
2018,08,07,11,17,25.00
2018,08,07,11,18,25.00
2018,08,07,11,19,25.10
2018,08,07,11,20,25.20
2018,08,07,11,21,25.30
2018,08,07,11,22,25.40
2018,08,07,11,23,25.50
2018,08,07,11,24,25.60
2018,08,07,11,25,25.80
2018,08,07,11,26,25.90
2018,08,07,11,27,26.10
2018,08,07,11,28,26.10
2018,08,07,11,29,25.90
2018,08,07,11,30,25.80
2018,08,07,11,31,25.90
2018,08,07,11,32,25.90
2018,08,07,11,33,25.90
2018,08,07,11,34,25.90
2018,08,07,11,35,26.00
2018,08,07,11,36,26.00
2018,08,07,11,37,26.00
2018,08,07,11,38,25.90
2018,08,07,11,39,25.80
2018,08,07,11,40,25.60
2018,08,07,11,41,25.50
2018,08,07,11,42,25.40
2018,08,07,11,43,25.20
2018,08,07,11,44,25.10
2018,08,07,11,45,25.10
2018,08,07,11,46,25.00
2018,08,07,11,47,25.00
2018,08,07,11,48,25.10
2018,08,07,11,49,25.20
2018,08,07,11,50,25.30
2018,08,07,11,51,25.40
2018,08,07,11,52,25.50
2018,08,07,11,53,25.50
2018,08,07,11,54,25.50
2018,08,07,11,55,25.60
2018,08,07,11,56,25.60
2018,08,07,11,57,25.70
2018,08,07,11,58,25.80
2018,08,07,11,59,25.90
2018,08,07,12,00,26.00
2018,08,07,12,01,26.00
2018,08,07,12,02,26.10
2018,08,07,12,03,26.10
2018,08,07,12,04,26.10
2018,08,07,12,05,26.10
2018,08,07,12,06,26.20
2018,08,07,12,07,26.30
2018,08,07,12,08,26.50
2018,08,07,12,09,26.60
2018,08,07,12,10,26.70
2018,08,07,12,11,26.80
2018,08,07,12,12,26.80
2018,08,07,12,13,26.80
2018,08,07,12,14,26.80
2018,08,07,12,15,26.70
2018,08,07,12,16,26.70
2018,08,07,12,17,26.60
2018,08,07,12,18,26.60
2018,08,07,12,19,26.60
2018,08,07,12,20,26.60
2018,08,07,12,21,26.60
2018,08,07,12,22,26.70
2018,08,07,12,23,26.70
2018,08,07,12,24,26.90
2018,08,07,12,25,27.00
2018,08,07,12,26,27.10
2018,08,07,12,27,27.30
2018,08,07,12,28,27.30
2018,08,07,12,29,27.40
2018,08,07,12,30,27.40
2018,08,07,12,31,27.40
2018,08,07,12,32,27.40
2018,08,07,12,33,27.50
2018,08,07,12,34,27.60
2018,08,07,12,35,27.70
2018,08,07,12,36,27.60
2018,08,07,12,37,27.60
2018,08,07,12,38,27.70
2018,08,07,12,39,27.80
2018,08,07,12,40,27.80
2018,08,07,12,41,27.80
2018,08,07,12,42,27.80
2018,08,07,12,43,27.90
2018,08,07,12,44,28.00
2018,08,07,12,45,28.10
2018,08,07,12,46,28.10
2018,08,07,12,47,27.90
2018,08,07,12,48,27.90
2018,08,07,12,49,27.90
2018,08,07,12,50,27.90
2018,08,07,12,51,27.90
2018,08,07,12,52,27.90
2018,08,07,12,53,27.90
2018,08,07,12,54,27.90
2018,08,07,12,55,27.70
2018,08,07,12,56,27.40
2018,08,07,12,57,27.20
2018,08,07,12,58,27.20
2018,08,07,12,59,27.10
2018,08,07,13,00,27.10
2018,08,07,13,01,27.10
2018,08,07,13,02,27.00
2018,08,07,13,03,27.00
2018,08,07,13,04,27.00
2018,08,07,13,05,26.90
2018,08,07,13,06,26.80
2018,08,07,13,07,26.80
2018,08,07,13,08,26.90
2018,08,07,13,09,27.00
2018,08,07,13,10,27.10
2018,08,07,13,11,27.10
2018,08,07,13,12,27.20
2018,08,07,13,13,27.20
2018,08,07,13,14,27.30
2018,08,07,13,15,27.30
2018,08,07,13,16,27.30
2018,08,07,13,17,27.30
2018,08,07,13,18,27.20
2018,08,07,13,19,27.10
2018,08,07,13,20,27.00
2018,08,07,13,21,27.10
2018,08,07,13,22,27.20
2018,08,07,13,23,27.20
2018,08,07,13,24,27.20
2018,08,07,13,25,27.20
2018,08,07,13,26,27.30
2018,08,07,13,27,27.30
2018,08,07,13,28,27.30
2018,08,07,13,29,27.30
2018,08,07,13,30,27.30
2018,08,07,13,31,27.20
2018,08,07,13,32,27.10
2018,08,07,13,33,27.10
2018,08,07,13,34,27.10
2018,08,07,13,35,27.20
2018,08,07,13,36,27.30
2018,08,07,13,37,27.30
2018,08,07,13,38,27.30
2018,08,07,13,39,27.40
2018,08,07,13,40,27.40
2018,08,07,13,41,27.60
2018,08,07,13,42,27.60
2018,08,07,13,43,27.60
2018,08,07,13,44,27.60
2018,08,07,13,45,27.60
2018,08,07,13,46,27.50
2018,08,07,13,47,27.40
2018,08,07,13,48,27.30
2018,08,07,13,49,27.30
2018,08,07,13,50,27.20
2018,08,07,13,51,27.10
2018,08,07,13,52,27.10
2018,08,07,13,53,27.00
2018,08,07,13,54,26.90
2018,08,07,13,55,26.90
2018,08,07,13,56,26.90
2018,08,07,13,57,27.00
2018,08,07,13,58,26.90
2018,08,07,13,59,26.70
2018,08,07,14,00,26.50
2018,08,07,14,01,26.50
2018,08,07,14,02,26.60
2018,08,07,14,03,26.40
2018,08,07,14,04,26.40
2018,08,07,14,05,26.20
2018,08,07,14,06,26.20
2018,08,07,14,07,26.20
2018,08,07,14,08,26.20
2018,08,07,14,09,26.30
2018,08,07,14,10,26.30
2018,08,07,14,11,26.30
2018,08,07,14,12,26.40
2018,08,07,14,13,26.40
2018,08,07,14,14,26.30
2018,08,07,14,15,26.10
2018,08,07,14,16,25.90
2018,08,07,14,17,25.70
2018,08,07,14,18,25.60
2018,08,07,14,19,25.40
2018,08,07,14,20,25.40
2018,08,07,14,21,25.40
2018,08,07,14,22,25.40
2018,08,07,14,23,25.50
2018,08,07,14,24,25.50
2018,08,07,14,25,25.70
2018,08,07,14,26,25.80
2018,08,07,14,27,26.00
2018,08,07,14,28,26.20
2018,08,07,14,29,26.40
2018,08,07,14,30,26.60
2018,08,07,14,31,26.70
2018,08,07,14,32,26.90
2018,08,07,14,33,27.00
2018,08,07,14,34,27.10
2018,08,07,14,35,27.20
2018,08,07,14,36,27.30
2018,08,07,14,37,27.30
2018,08,07,14,38,27.30
2018,08,07,14,39,27.30
2018,08,07,14,40,27.30
2018,08,07,14,41,27.10
2018,08,07,14,42,27.00
2018,08,07,14,43,26.90
2018,08,07,14,44,27.00
2018,08,07,14,45,27.10
2018,08,07,14,46,27.20
2018,08,07,14,47,27.20
2018,08,07,14,48,27.20
2018,08,07,14,49,27.20
2018,08,07,14,50,27.30
2018,08,07,14,51,27.50
2018,08,07,14,52,27.70
2018,08,07,14,53,27.80
2018,08,07,14,54,27.90
2018,08,07,14,55,28.00
2018,08,07,14,56,27.80
2018,08,07,14,57,27.80
2018,08,07,14,58,27.80
2018,08,07,14,59,27.80
2018,08,07,15,00,27.80
2018,08,07,15,01,27.80
2018,08,07,15,02,27.70
2018,08,07,15,03,27.70
2018,08,07,15,04,27.70
2018,08,07,15,05,27.80
2018,08,07,15,06,27.90
2018,08,07,15,07,28.00
2018,08,07,15,08,28.00
2018,08,07,15,09,28.00
2018,08,07,15,10,28.00
2018,08,07,15,11,28.10
2018,08,07,15,12,28.10
2018,08,07,15,13,28.20
2018,08,07,15,14,28.30
2018,08,07,15,15,28.40
2018,08,07,15,16,28.50
2018,08,07,15,17,28.60
2018,08,07,15,18,28.60
2018,08,07,15,19,28.60
2018,08,07,15,20,28.60
2018,08,07,15,21,28.60
2018,08,07,15,22,28.40
2018,08,07,15,23,28.20
2018,08,07,15,24,28.10
2018,08,07,15,25,28.00
2018,08,07,15,26,28.00
2018,08,07,15,27,27.90
2018,08,07,15,28,27.90
2018,08,07,15,29,27.90
2018,08,07,15,30,27.90
2018,08,07,15,31,27.90
2018,08,07,15,32,27.90
2018,08,07,15,33,28.00
2018,08,07,15,34,28.00
2018,08,07,15,35,28.10
2018,08,07,15,36,28.20
2018,08,07,15,37,28.20
2018,08,07,15,38,28.30
2018,08,07,15,39,28.20
2018,08,07,15,40,28.20
2018,08,07,15,41,28.20
2018,08,07,15,42,28.30
2018,08,07,15,43,28.40
2018,08,07,15,44,28.40
2018,08,07,15,45,28.40
2018,08,07,15,46,28.40
2018,08,07,15,47,28.60
2018,08,07,15,48,28.60
2018,08,07,15,49,28.70
2018,08,07,15,50,28.80
2018,08,07,15,51,28.90
2018,08,07,15,52,29.00
2018,08,07,15,53,29.10
2018,08,07,15,54,29.10
2018,08,07,15,55,29.10
2018,08,07,15,56,29.10
2018,08,07,15,57,29.20
2018,08,07,15,58,29.20
2018,08,07,15,59,29.20
2018,08,07,16,00,29.10
2018,08,07,16,01,29.10
2018,08,07,16,02,29.00
2018,08,07,16,03,29.10
2018,08,07,16,04,29.10
2018,08,07,16,05,29.20
2018,08,07,16,06,29.20
2018,08,07,16,07,29.30
2018,08,07,16,08,29.40
2018,08,07,16,09,29.50
2018,08,07,16,10,29.50
2018,08,07,16,11,29.60
2018,08,07,16,12,29.30
2018,08,07,16,13,29.30
2018,08,07,16,14,29.30
2018,08,07,16,15,29.30
2018,08,07,16,16,29.40
2018,08,07,16,17,29.40
2018,08,07,16,18,29.40
2018,08,07,16,19,29.50
2018,08,07,16,20,29.50
2018,08,07,16,21,29.60
2018,08,07,16,22,29.60
2018,08,07,16,23,29.60
2018,08,07,16,24,29.70
2018,08,07,16,25,29.70
2018,08,07,16,26,29.70
2018,08,07,16,27,29.80
2018,08,07,16,28,29.70
2018,08,07,16,29,29.80
2018,08,07,16,30,29.80
2018,08,07,16,31,29.80
2018,08,07,16,32,29.80
2018,08,07,16,33,29.80
2018,08,07,16,34,29.80
2018,08,07,16,35,29.80
2018,08,07,16,36,29.70
2018,08,07,16,37,29.60
2018,08,07,16,38,29.60
2018,08,07,16,39,29.50
2018,08,07,16,40,29.60
2018,08,07,16,41,29.60
2018,08,07,16,42,29.60
2018,08,07,16,43,29.50
2018,08,07,16,44,29.40
2018,08,07,16,45,29.30
2018,08,07,16,46,29.20
2018,08,07,16,47,29.20
2018,08,07,16,48,29.30
2018,08,07,16,49,29.30
2018,08,07,16,50,29.40
2018,08,07,16,51,29.40
2018,08,07,16,52,29.40
2018,08,07,16,53,29.30
2018,08,07,16,54,29.10
2018,08,07,16,55,28.90
2018,08,07,16,56,28.90
2018,08,07,16,57,28.90
2018,08,07,16,58,28.90
2018,08,07,16,59,28.80
2018,08,07,17,00,28.80
2018,08,07,17,01,28.80
2018,08,07,17,02,28.80
2018,08,07,17,03,28.80
2018,08,07,17,04,28.90
2018,08,07,17,05,28.90
2018,08,07,17,06,28.90
2018,08,07,17,07,28.90
2018,08,07,17,08,28.90
2018,08,07,17,09,28.80
2018,08,07,17,10,28.80
2018,08,07,17,11,28.70
2018,08,07,17,12,28.70
2018,08,07,17,13,28.70
2018,08,07,17,14,28.60
2018,08,07,17,15,28.60
2018,08,07,17,16,28.70
2018,08,07,17,17,28.70
2018,08,07,17,18,28.70
2018,08,07,17,19,28.80